Вернуться в каталог

CZ-4C R/B

АктивенLEO
NORAD 54701·ROCKET BODY·🇨🇳 China

Запущен Dec 12, 2022 с Jiuquan Satellite Launch Center

Loading…

Ближайшие Пролёты (ближайшие 24 часа)

TLE

СвежийSource: Space-Track

Эпоха: Sep 14, 2026, 16:09 UTC

1 54701U 22169C   26257.67334885  .00000088  00000-0  58772-4 0  9992
2 54701  59.9549 137.0766 0091694 137.6638 223.1532 14.51763500199114

Отслеживайте CZ-4C R/B в реальном времени с AllMySat

Download on the App Store